This is the latest recevied weather packets stored in our database for station/object GBTWP-2. If no packets are shown the sender has not sent any weather packets the latest 10 day(s).
| Time | Temp. | Humidity | Pressure | Rain* | Wind** | Luminosity | Snow |
|---|---|---|---|---|---|---|---|
| 1777684502 | 5.56° C | 65% | 1018.3 hPa | 0 mm | - | 0 W/m² | - |
| 1777684202 | 5.56° C | 64% | 1018.3 hPa | 0 mm | - | 0 W/m² | - |
| 1777683901 | 5.56° C | 64% | 1018.2 hPa | 0 mm | - | 0 W/m² | - |
| 1777683602 | 5.56° C | 63% | 1018.3 hPa | 0 mm | - | 0 W/m² | - |
| 1777683302 | 6.11° C | 62% | 1018 hPa | 0 mm | - | 0 W/m² | - |
| 1777683002 | 6.11° C | 61% | 1018 hPa | 0 mm | - | 0 W/m² | - |
| 1777682402 | 6.11° C | 61% | 1017.9 hPa | 0 mm | - | 0 W/m² | - |
| 1777682102 | 6.11° C | 62% | 1018 hPa | 0 mm | - | 1 W/m² | - |
| 1777681802 | 6.67° C | 60% | 1017.9 hPa | 0 mm | - | 1 W/m² | - |
| 1777681502 | 6.67° C | 62% | 1018 hPa | 0 mm | - | 2 W/m² | - |
| 1777681202 | 6.67° C | 62% | 1017.8 hPa | 0 mm | - | 2 W/m² | - |
| 1777680902 | 6.67° C | 65% | 1017.8 hPa | 0 mm | - | 2 W/m² | - |
| 1777680302 | 6.67° C | 64% | 1017.7 hPa | 0 mm | - | 6 W/m² | - |
| 1777680002 | 6.67° C | 65% | 1017.7 hPa | 0 mm | - | 8 W/m² | - |
| 1777679702 | 6.67° C | 63% | 1017.5 hPa | 0 mm | - | 11 W/m² | - |
| 1777679402 | 6.67° C | 63% | 1017.6 hPa | 0 mm | - | 12 W/m² | - |
| 1777679102 | 6.67° C | 63% | 1017.7 hPa | 0 mm | - | 15 W/m² | - |
| 1777678501 | 6.67° C | 62% | 1017.7 hPa | 0 mm | - | 19 W/m² | - |
| 1777678202 | 6.67° C | 62% | 1017.8 hPa | 0 mm | - | 24 W/m² | - |
| 1777677902 | 6.67° C | 61% | 1017.8 hPa | 0 mm | - | 27 W/m² | - |
| 1777677602 | 7.22° C | 62% | 1017.6 hPa | 0 mm | - | 29 W/m² | - |
| 1777677302 | 7.22° C | 63% | 1017.7 hPa | 0 mm | - | 34 W/m² | - |
| 1777677001 | 7.22° C | 62% | 1017.8 hPa | 0 mm | - | 34 W/m² | - |
| 1777676702 | 7.22° C | 64% | 1017.6 hPa | 0 mm | - | 36 W/m² | - |
| 1777676102 | 7.22° C | 61% | 1017.6 hPa | 0 mm | - | 21 W/m² | - |
* Rain latest hour (hover to see other rain measurements)
** Current wind speed in m/s (hover to see current wind gust speed)